Beaver Falls, PA

4:24 AM EDT on October 17, 2019 (GMT -0400)
Beaver County

Weather History for KBVI - September, 2019

Change the Weather History Date:

Wednesday, September 18, 2019

  Actual Average Record
Temperature  
Mean Temperature 66 °F -  
Max Temperature 76 °F 70 °F 84 °F (2017)
Min Temperature 55 °F 53 °F 46 °F (2011)
Growing Degree Days 16 (Base 50)    
Moisture  
Dew Point 46 °F    
Average Humidity 52    
Maximum Humidity 80    
Minimum Humidity 25    
Precipitation  
Precipitation 0.00 in - - ()
Sea Level Pressure  
Sea Level Pressure 30.22 in    
Wind  
Wind Speed 3 mph (East)    
Max Wind Speed 12 mph    
Max Gust Speed 16 mph    
Visibility 10 miles    
Events      
Averages and records for this station are not official NWS values.
T = Trace of Precipitation, MM = Missing Value Source: NWS Daily Summary

Daily Weather History Graph

Daily Weather History Graph

Search for Another Location

Airport or City:

Astronomy

Sep. 18, 2019 Rise Set
Actual Time 7:04 AM EDT 7:25 PM EDT
Civil Twilight 6:37 AM EDT 7:53 PM EDT
Nautical Twilight 6:05 AM EDT 8:25 PM EDT
Astronomical Twilight 5:32 AM EDT 8:58 PM EDT
Moon 9:57 PM EDT (9/18) 11:07 AM EDT (9/18)
Length of Visible Light 13h 15m
Length of Day
12h 20m
Waning Gibbous, 82% of the Moon is Illuminated
Sep 18
Waning Gibbous
Sep 21
Last Quarter
Sep 28
New
Oct 5
First Quarter
Oct 13
Full

Hourly Weather History & Observations

Time (EDT) Temp. Dew Point Humidity Pressure Visibility Wind Dir Wind Speed Gust Speed Precip Events Conditions
12:15 AM 63.5 °F 49.6 °F 61% 30.18 in 10.0 mi ENE 3.5 mph - N/A   Clear
12:16 AM 63.5 °F 49.6 °F 61% 30.18 in 10.0 mi East 3.5 mph - N/A   Clear
12:35 AM 63.3 °F 49.6 °F 61% 30.18 in 10.0 mi Calm Calm - N/A   Clear
12:36 AM 63.3 °F 49.6 °F 61% 30.18 in 10.0 mi Calm Calm - N/A   Clear
12:55 AM 62.4 °F 49.6 °F 63% 30.18 in 10.0 mi ENE 3.5 mph - N/A   Clear
1:15 AM 61.9 °F 49.8 °F 65% 30.18 in 10.0 mi NE 3.5 mph - N/A   Clear
1:16 AM 61.9 °F 49.6 °F 64% 30.18 in 10.0 mi NE 3.5 mph - N/A   Clear
1:35 AM 61.7 °F 50.0 °F 65% 30.19 in 10.0 mi Calm Calm - N/A   Clear
1:55 AM 61.2 °F 50.0 °F 67% 30.20 in 10.0 mi ENE 4.6 mph - N/A   Clear
2:15 AM 60.8 °F 50.0 °F 68% 30.20 in 10.0 mi East 3.5 mph - N/A   Clear
2:16 AM 60.8 °F 50.0 °F 68% 30.20 in 10.0 mi East 3.5 mph - N/A   Clear
2:35 AM 60.1 °F 50.0 °F 69% 30.19 in 10.0 mi East 4.6 mph - N/A   Clear
2:55 AM 59.9 °F 50.0 °F 70% 30.20 in 10.0 mi East 3.5 mph - N/A   Clear
3:15 AM 59.2 °F 50.0 °F 72% 30.20 in 10.0 mi Calm Calm - N/A   Clear
3:16 AM 59.2 °F 50.0 °F 72% 30.20 in 10.0 mi Calm Calm - N/A   Clear
3:35 AM 58.6 °F 49.8 °F 72% 30.19 in 10.0 mi East 3.5 mph - N/A   Clear
3:36 AM 58.6 °F 49.6 °F 72% 30.19 in 10.0 mi East 3.5 mph - N/A   Clear
3:55 AM 58.6 °F 49.6 °F 72% 30.20 in 10.0 mi Calm Calm - N/A   Clear
4:15 AM 58.1 °F 49.5 °F 73% 30.20 in 10.0 mi East 3.5 mph - N/A   Clear
4:16 AM 58.1 °F 49.6 °F 73% 30.20 in 10.0 mi East 3.5 mph - N/A   Clear
4:35 AM 57.7 °F 49.5 °F 74% 30.19 in 10.0 mi East 3.5 mph - N/A   Clear
4:55 AM 57.6 °F 49.5 °F 74% 30.19 in 10.0 mi East 3.5 mph - N/A   Clear
5:15 AM 56.5 °F 49.5 °F 77% 30.20 in 10.0 mi Calm Calm - N/A   Clear
5:35 AM 56.5 °F 49.5 °F 77% 30.20 in 10.0 mi Calm Calm - N/A   Clear
5:36 AM 56.5 °F 49.5 °F 77% 30.20 in 10.0 mi East 3.5 mph - N/A   Clear
5:55 AM 56.3 °F 49.5 °F 78% 30.20 in 10.0 mi East 3.5 mph - N/A   Clear
5:56 AM 56.3 °F 49.5 °F 78% 30.20 in 10.0 mi East 3.5 mph - N/A   Clear
6:15 AM 55.9 °F 49.5 °F 79% 30.20 in 10.0 mi Calm Calm - N/A   Clear
6:35 AM 55.6 °F 49.3 °F 79% 30.20 in 10.0 mi East 4.6 mph - N/A   Clear
6:36 AM 55.6 °F 49.1 °F 79% 30.21 in 10.0 mi East 3.5 mph - N/A   Clear
6:47 AM 55.4 °F 48.2 °F 77% 30.23 in 10.0 mi East 3.5 mph - N/A   Clear
6:55 AM 55.4 °F 49.1 °F 79% 30.21 in 10.0 mi Calm Calm - N/A   Clear
7:15 AM 55.2 °F 49.3 °F 80% 30.22 in 10.0 mi East 3.5 mph - N/A   Clear
7:35 AM 55.8 °F 49.1 °F 78% 30.23 in 10.0 mi Calm Calm - N/A   Clear
7:36 AM 55.8 °F 49.1 °F 78% 30.23 in 10.0 mi East 3.5 mph - N/A   Clear
7:47 AM 57.2 °F 50.0 °F 77% 30.23 in 10.0 mi East 3.5 mph - N/A   Clear
7:55 AM 57.2 °F 49.5 °F 75% 30.23 in 10.0 mi East 3.5 mph - N/A   Clear
8:15 AM 58.1 °F 49.6 °F 73% 30.23 in 10.0 mi East 4.6 mph - N/A   Clear
8:35 AM 58.5 °F 49.6 °F 72% 30.24 in 10.0 mi East 5.8 mph - N/A   Clear
8:36 AM 58.5 °F 49.6 °F 72% 30.24 in 10.0 mi East 6.9 mph - N/A   Clear
8:47 AM 59.0 °F 50.0 °F 72% 30.24 in 10.0 mi East 5.8 mph - N/A   Clear
8:55 AM 59.9 °F 50.2 °F 70% 30.24 in 10.0 mi ENE 4.6 mph - N/A   Clear
9:15 AM 61.3 °F 50.7 °F 68% 30.24 in 10.0 mi East 3.5 mph - N/A   Clear
9:35 AM 62.6 °F 50.9 °F 66% 30.24 in 10.0 mi East 5.8 mph - N/A   Clear
9:36 AM 62.6 °F 50.9 °F 66% 30.25 in 10.0 mi East 5.8 mph - N/A   Clear
9:47 AM 62.6 °F 51.8 °F 68% 30.25 in 10.0 mi East 5.8 mph - N/A   Clear
9:55 AM 64.4 °F 51.3 °F 62% 30.24 in 10.0 mi East 5.8 mph - N/A   Clear
10:15 AM 65.3 °F 51.8 °F 62% 30.24 in 10.0 mi East 3.5 mph - N/A   Clear
10:35 AM 66.4 °F 51.6 °F 59% 30.24 in 10.0 mi Calm Calm - N/A   Clear
10:36 AM 66.4 °F 51.8 °F 59% 30.24 in 10.0 mi East 3.5 mph - N/A   Clear
10:47 AM 68.0 °F 51.8 °F 56% 30.24 in 10.0 mi East 4.6 mph - N/A   Clear
10:55 AM 68.5 °F 52.2 °F 56% 30.24 in 10.0 mi East 3.5 mph - N/A   Clear
11:15 AM 69.3 °F 51.4 °F 53% 30.24 in 10.0 mi East 4.6 mph - N/A   Clear
11:35 AM 70.2 °F 51.1 °F 51% 30.23 in 10.0 mi East 3.5 mph - N/A   Clear
11:36 AM 70.3 °F 51.3 °F 51% 30.23 in 10.0 mi East 3.5 mph - N/A   Clear
11:47 AM 71.6 °F 50.0 °F 46% 30.24 in 10.0 mi ENE 6.9 mph - N/A   Clear
11:55 AM 71.6 °F 49.1 °F 45% 30.24 in 10.0 mi East 5.8 mph - N/A   Clear
11:56 AM 71.6 °F 49.1 °F 45% 30.24 in 10.0 mi ESE 6.9 mph - N/A   Clear
12:15 PM 72.9 °F 47.7 °F 41% 30.23 in 10.0 mi East 6.9 mph - N/A   Clear
12:35 PM 72.9 °F 42.3 °F 33% 30.24 in 10.0 mi East 8.1 mph - N/A   Clear
12:36 PM 72.9 °F 42.1 °F 33% 30.24 in 10.0 mi East 8.1 mph - N/A   Clear
12:47 PM 73.4 °F 41.0 °F 31% 30.24 in 10.0 mi ESE 10.4 mph - N/A   Clear
12:55 PM 73.6 °F 39.6 °F 29% 30.24 in 10.0 mi ESE 11.5 mph 16.1 mph N/A   Clear
1:15 PM 74.3 °F 41.0 °F 30% 30.24 in 10.0 mi East 8.1 mph - N/A   Clear
1:35 PM 74.3 °F 41.9 °F 31% 30.23 in 10.0 mi ESE 3.5 mph - N/A   Clear
1:47 PM 73.4 °F 41.0 °F 31% 30.23 in 10.0 mi East 6.9 mph - N/A   Clear
1:55 PM 75.6 °F 41.4 °F 29% 30.23 in 10.0 mi East 3.5 mph - N/A   Clear
1:56 PM 75.6 °F 41.4 °F 29% 30.23 in 10.0 mi East 4.6 mph - N/A   Clear
2:15 PM 75.6 °F 39.9 °F 28% 30.23 in 10.0 mi SE 6.9 mph - N/A   Clear
2:35 PM 76.1 °F 40.5 °F 28% 30.23 in 10.0 mi East 5.8 mph - N/A   Clear
2:47 PM 75.2 °F 41.0 °F 29% 30.23 in 10.0 mi ESE 8.1 mph - N/A   Clear
2:55 PM 76.8 °F 41.7 °F 28% 30.23 in 10.0 mi ESE 3.5 mph - N/A   Clear
2:56 PM 76.8 °F 42.1 °F 29% 30.23 in 10.0 mi Calm Calm - N/A   Clear
3:15 PM 75.4 °F 41.4 °F 29% 30.23 in 10.0 mi ESE 4.6 mph - N/A   Clear
3:35 PM 75.7 °F 39.2 °F 27% 30.22 in 10.0 mi East 3.5 mph - N/A   Clear
3:36 PM 75.7 °F 39.2 °F 27% 30.22 in 10.0 mi East 4.6 mph - N/A   Clear
3:47 PM 75.2 °F 39.2 °F 27% 30.22 in 10.0 mi ENE 6.9 mph - N/A   Clear
3:55 PM 75.7 °F 37.8 °F 25% 30.22 in 10.0 mi Calm Calm - N/A   Clear
3:56 PM 75.6 °F 37.9 °F 26% 30.22 in 10.0 mi ENE 4.6 mph - N/A   Clear
4:15 PM 76.5 °F 38.1 °F 25% 30.21 in 10.0 mi NNE 5.8 mph - N/A   Clear
4:16 PM 76.3 °F 38.3 °F 25% 30.21 in 10.0 mi NE 3.5 mph - N/A   Clear
4:35 PM 75.7 °F 38.5 °F 26% 30.21 in 10.0 mi East 5.8 mph - N/A   Clear
4:47 PM 75.2 °F 39.2 °F 27% 30.21 in 10.0 mi ENE 5.8 mph - N/A   Clear
4:55 PM 75.4 °F 39.0 °F 27% 30.21 in 10.0 mi East 4.6 mph - N/A   Clear
5:15 PM 74.8 °F 39.6 °F 28% 30.21 in 10.0 mi NE 5.8 mph - N/A   Clear
5:16 PM 74.8 °F 39.6 °F 28% 30.21 in 10.0 mi NE 4.6 mph - N/A   Clear
5:35 PM 73.8 °F 39.0 °F 28% 30.21 in 10.0 mi East 4.6 mph - N/A   Clear
5:55 PM 73.4 °F 39.7 °F 30% 30.21 in 10.0 mi East 4.6 mph - N/A   Clear
5:56 PM 73.4 °F 39.9 °F 30% 30.21 in 10.0 mi East 4.6 mph - N/A   Clear
6:15 PM 73.4 °F 41.0 °F 31% 30.21 in 10.0 mi NE 5.8 mph - N/A   Clear
6:16 PM 73.2 °F 40.8 °F 31% 30.21 in 10.0 mi ENE 4.6 mph - N/A   Clear
6:35 PM 72.1 °F 40.8 °F 32% 30.22 in 10.0 mi ENE 4.6 mph - N/A   Clear
6:55 PM 70.7 °F 40.8 °F 34% 30.22 in 10.0 mi ENE 3.5 mph - N/A   Clear
6:56 PM 70.7 °F 40.6 °F 34% 30.22 in 10.0 mi ENE 3.5 mph - N/A   Clear
7:15 PM 69.6 °F 41.2 °F 36% 30.22 in 10.0 mi Calm Calm - N/A   Clear
7:16 PM 69.6 °F 41.4 °F 36% 30.22 in 10.0 mi Calm Calm - N/A   Clear
7:35 PM 68.0 °F 42.3 °F 39% 30.21 in 10.0 mi Calm Calm - N/A   Clear
7:36 PM 68.0 °F 42.4 °F 39% 30.21 in 10.0 mi Calm Calm - N/A   Clear
7:55 PM 67.1 °F 43.0 °F 42% 30.22 in 10.0 mi Calm Calm - N/A   Clear
7:56 PM 67.1 °F 43.0 °F 42% 30.22 in 10.0 mi Calm Calm - N/A   Clear
8:15 PM 66.2 °F 43.7 °F 44% 30.22 in 10.0 mi East 3.5 mph - N/A   Clear
8:16 PM 66.2 °F 43.5 °F 44% 30.22 in 10.0 mi Calm Calm - N/A   Clear
8:35 PM 65.1 °F 44.1 °F 46% 30.22 in 10.0 mi Calm Calm - N/A   Clear
8:55 PM 64.4 °F 44.2 °F 48% 30.23 in 10.0 mi ENE 3.5 mph - N/A   Clear
9:15 PM 64.9 °F 42.8 °F 45% 30.22 in 10.0 mi East 3.5 mph - N/A   Clear
9:16 PM 64.9 °F 42.8 °F 45% 30.22 in 10.0 mi East 3.5 mph - N/A   Clear
9:35 PM 64.2 °F 42.8 °F 46% 30.23 in 10.0 mi East 3.5 mph - N/A   Clear
9:55 PM 63.9 °F 42.1 °F 45% 30.24 in 10.0 mi East 3.5 mph - N/A   Clear
10:15 PM 63.3 °F 41.9 °F 46% 30.24 in 10.0 mi Calm Calm - N/A   Clear
10:16 PM 63.1 °F 41.9 °F 46% 30.24 in 10.0 mi Calm Calm - N/A   Clear
10:35 PM 63.3 °F 41.9 °F 46% 30.23 in 10.0 mi Calm Calm - N/A   Clear
10:55 PM 62.8 °F 42.1 °F 47% 30.24 in 10.0 mi ESE 3.5 mph - N/A   Clear
11:15 PM 62.4 °F 42.3 °F 48% 30.23 in 10.0 mi ESE 3.5 mph - N/A   Clear
11:16 PM 62.2 °F 42.4 °F 48% 30.23 in 10.0 mi ESE 3.5 mph - N/A   Clear
11:35 PM 61.2 °F 42.6 °F 51% 30.23 in 10.0 mi ESE 4.6 mph - N/A   Clear
11:55 PM 60.8 °F 43.0 °F 52% 30.23 in 10.0 mi Calm Calm - N/A   Clear